Weather History for KMMK - March, 2014

Change the Weather History Date:

Friday, March 21, 2014

  Actual Average (KHVN) Record (KHVN)
Temperature  
Mean Temperature 38 °F -  
Max Temperature 46 °F 45 °F 68 °F (2012)
Min Temperature 28 °F 31 °F 12 °F (1986)
Degree Days  
Heating Degree Days 27    
Moisture  
Dew Point 19 °F    
Average Humidity 46    
Maximum Humidity 72    
Minimum Humidity 30    
Precipitation  
Precipitation 0.00 in - - ()
Sea Level Pressure  
Sea Level Pressure 29.94 in    
Wind  
Wind Speed 9 mph (WNW)    
Max Wind Speed 18 mph    
Max Gust Speed 26 mph    
Visibility 10 miles    
Events      
Averages and records for this station are not official NWS values.
T = Trace of Precipitation, MM = Missing Value Source: NWS Daily Summary

Daily Weather History Graph

Daily Weather History Graph

Search for Another Location

Airport or City:

Trip Planner

Search our weather history database for the weather conditions in past years. The results will help you decide how hot, cold, wet, or windy it might be!

Date:

Astronomy

Mar. 21, 2014 Rise Set
Actual Time 6:52 AM EDT 7:04 PM EDT
Civil Twilight 6:25 AM EDT 7:32 PM EDT
Nautical Twilight 5:52 AM EDT 8:04 PM EDT
Astronomical Twilight 5:19 AM EDT 8:37 PM EDT
Moon No Moon Rise 9:39 AM EDT (3/21)
Length of Visible Light 13h 06m
Length of Day
12h 11m
Waning Gibbous, 75% of the Moon is Illuminated
Mar 21
Waning Gibbous
Mar 23
Last Quarter
Mar 30
New
Apr 7
First Quarter
Apr 15
Full

Hourly Weather History & Observations

Time (EDT) Temp. Windchill Dew Point Humidity Pressure Visibility Wind Dir Wind Speed Gust Speed Precip Events Conditions
12:53 AM 39.0 °F 32.3 °F 19.9 °F 46% 29.84 in 10.0 mi West 10.4 mph 18.4 mph N/A   Mostly Cloudy
1:53 AM 37.9 °F 32.7 °F 19.9 °F 48% 29.85 in 10.0 mi West 6.9 mph - N/A   Clear
2:53 AM 37.0 °F 31.0 °F 19.9 °F 50% 29.85 in 10.0 mi West 8.1 mph - N/A   Clear
3:53 AM 37.0 °F 34.5 °F 19.9 °F 50% 29.86 in 10.0 mi WNW 3.5 mph - N/A   Clear
4:53 AM 36.0 °F 29.6 °F 21.0 °F 55% 29.87 in 10.0 mi West 8.1 mph - N/A   Clear
5:53 AM 36.0 °F 33.3 °F 19.9 °F 52% 29.88 in 10.0 mi West 3.5 mph - N/A   Partly Cloudy
6:53 AM 33.1 °F 30.0 °F 21.0 °F 61% 29.90 in 10.0 mi WSW 3.5 mph - N/A   Scattered Clouds
7:53 AM 36.0 °F 32.1 °F 21.0 °F 55% 29.92 in 10.0 mi West 4.6 mph - N/A   Partly Cloudy
8:53 AM 37.9 °F 32.7 °F 19.9 °F 48% 29.92 in 10.0 mi West 6.9 mph - N/A   Partly Cloudy
9:53 AM 39.0 °F 30.6 °F 19.0 °F 45% 29.93 in 10.0 mi WNW 15.0 mph 26.5 mph N/A   Clear
10:53 AM 41.0 °F 33.5 °F 18.0 °F 40% 29.93 in 10.0 mi West 13.8 mph 20.7 mph N/A   Scattered Clouds
11:53 AM 43.0 °F 35.7 °F 17.1 °F 35% 29.94 in 10.0 mi West 15.0 mph 23.0 mph N/A   Clear
12:53 PM 44.1 °F 38.1 °F 17.1 °F 34% 29.94 in 10.0 mi WNW 11.5 mph 24.2 mph N/A   Partly Cloudy
1:53 PM 45.0 °F 37.4 °F 16.0 °F 31% 29.93 in 10.0 mi NW 18.4 mph 26.5 mph N/A   Clear
2:53 PM 45.0 °F 37.9 °F 16.0 °F 31% 29.93 in 10.0 mi NW 16.1 mph 25.3 mph N/A   Clear
3:53 PM 46.9 °F - 17.1 °F 30% 29.93 in 10.0 mi WNW 15.0 mph 20.7 mph N/A   Clear
4:53 PM 46.0 °F 39.9 °F 17.1 °F 31% 29.94 in 10.0 mi WNW 13.8 mph 23.0 mph N/A   Clear
5:53 PM 46.0 °F 39.9 °F 17.1 °F 31% 29.97 in 10.0 mi NNW 13.8 mph - N/A   Clear
6:53 PM 43.0 °F 38.2 °F 17.1 °F 35% 30.00 in 10.0 mi NW 8.1 mph - N/A   Clear
7:53 PM 41.0 °F 36.4 °F 19.0 °F 41% 30.02 in 10.0 mi NNW 6.9 mph - N/A   Clear
8:53 PM 37.9 °F 34.4 °F 19.9 °F 48% 30.04 in 10.0 mi North 4.6 mph - N/A   Clear
9:53 PM 35.1 °F 31.0 °F 19.9 °F 54% 30.07 in 10.0 mi NW 4.6 mph - N/A   Clear
10:53 PM 30.0 °F - 21.0 °F 69% 30.08 in 10.0 mi Calm Calm - N/A   Clear
11:53 PM 28.0 °F - 19.9 °F 72% 30.06 in 10.0 mi Calm Calm - N/A   Clear